TimeEST,TemperatureF,Dew PointF,Humidity,Sea Level PressureIn,VisibilityMPH,Wind Direction,Wind SpeedMPH,Gust SpeedMPH,PrecipitationIn,Events,Conditions,WindDirDegrees,DateUTC
12:18 AM,24.1,23.0,96,29.21,3.0,NNW,9.2,-,0.00,Snow,Light Snow,340,2014-02-14 05:18:00
12:33 AM,24.1,21.9,91,29.19,2.5,NNW,9.2,-,0.00,Snow,Light Snow,330,2014-02-14 05:33:00
12:51 AM,24.1,21.9,91,29.22,4.0,NW,8.1,-,0.00,Snow,Light Snow,320,2014-02-14 05:51:00
1:51 AM,24.1,21.9,91,29.16,9.0,NW,6.9,-,0.00,,Overcast,320,2014-02-14 06:51:00
2:31 AM,24.1,21.9,91,29.07,1.8,NNW,12.7,-,0.00,Snow,Light Snow,340,2014-02-14 07:31:00
2:35 AM,24.1,21.9,91,29.06,1.0,NNW,13.8,20.7,0.01,Snow,Light Snow,340,2014-02-14 07:35:00
2:43 AM,24.1,21.9,91,29.05,0.5,NNW,11.5,20.7,0.02,Fog-Snow,Snow,340,2014-02-14 07:43:00
2:51 AM,24.1,21.9,91,29.11,0.5,NNW,15.0,23.0,0.03,Fog-Snow,Snow,340,2014-02-14 07:51:00
3:49 AM,24.8,23.0,93,29.01,0.2,North,15.0,24.2,0.09,Fog-Snow,Heavy Snow,360,2014-02-14 08:49:00
3:51 AM,24.1,23.0,96,29.06,0.2,North,12.7,24.2,0.09,Fog-Snow,Heavy Snow,350,2014-02-14 08:51:00
4:22 AM,24.1,23.0,96,29.00,0.2,North,9.2,-,0.13,Fog-Snow,Heavy Snow,350,2014-02-14 09:22:00
4:51 AM,24.1,23.0,96,29.04,0.2,North,13.8,19.6,0.26,Fog-Snow,Heavy Snow,350,2014-02-14 09:51:00
5:51 AM,21.9,21.0,96,29.05,0.2,NW,9.2,-,0.24,Fog-Snow,Heavy Snow,320,2014-02-14 10:51:00
6:51 AM,21.0,19.9,96,29.05,0.2,NW,9.2,-,0.10,Fog-Snow,Heavy Snow,310,2014-02-14 11:51:00
7:51 AM,21.0,19.0,92,29.05,0.2,WNW,13.8,-,0.04,Fog-Snow,Heavy Snow,300,2014-02-14 12:51:00
8:51 AM,19.9,18.0,92,29.08,0.2,WNW,16.1,23.0,0.02,Fog-Snow,Heavy Snow,300,2014-02-14 13:51:00
9:24 AM,19.9,17.1,89,29.03,0.5,WNW,17.3,24.2,0.00,Fog-Snow,Snow,300,2014-02-14 14:24:00
9:51 AM,21.0,17.1,85,29.10,1.0,NW,17.3,28.8,0.01,Snow,Light Snow,310,2014-02-14 14:51:00
10:18 AM,21.9,18.0,85,29.06,0.8,NW,15.0,23.0,0.01,Snow,Light Snow,310,2014-02-14 15:18:00
10:25 AM,21.9,18.0,85,29.06,1.0,NW,15.0,25.3,0.01,Snow,Light Snow,310,2014-02-14 15:25:00
10:51 AM,21.9,18.0,85,29.13,1.0,WNW,17.3,32.2,0.01,Snow,Light Snow,300,2014-02-14 15:51:00
11:09 AM,23.0,19.0,85,29.10,1.2,NW,12.7,-,0.00,Snow,Light Snow,310,2014-02-14 16:09:00
11:16 AM,23.0,18.0,81,29.10,1.8,NW,13.8,21.9,0.00,Snow,Light Snow,310,2014-02-14 16:16:00
11:29 AM,23.0,19.0,85,29.11,1.2,NW,16.1,21.9,0.00,Snow,Light Snow,310,2014-02-14 16:29:00
11:32 AM,23.0,19.0,85,29.11,1.0,NW,15.0,23.0,0.00,Snow,Light Snow,320,2014-02-14 16:32:00
11:42 AM,23.0,19.0,85,29.11,0.8,NW,23.0,31.1,0.00,Snow,Light Snow,310,2014-02-14 16:42:00
11:51 AM,23.0,19.0,85,29.16,0.8,NW,18.4,31.1,0.00,Snow,Light Snow,320,2014-02-14 16:51:00
12:14 PM,23.0,19.9,88,29.14,0.5,WNW,19.6,27.6,0.00,Fog-Snow,Snow,300,2014-02-14 17:14:00
12:34 PM,23.0,19.9,88,29.15,0.5,WNW,19.6,29.9,0.00,Fog-Snow,Snow,300,2014-02-14 17:34:00
12:41 PM,23.0,19.9,88,29.16,0.8,NW,17.3,31.1,0.00,Snow,Light Snow,310,2014-02-14 17:41:00
12:49 PM,23.0,19.4,86,29.17,0.8,NW,15.0,31.1,0.00,Snow,Light Snow,320,2014-02-14 17:49:00
12:51 PM,23.0,19.9,88,29.22,1.0,NW,15.0,25.3,0.00,Snow,Light Snow,320,2014-02-14 17:51:00
1:01 PM,24.1,19.9,84,29.18,1.0,NW,12.7,-,0.00,Snow,Light Snow,320,2014-02-14 18:01:00
1:32 PM,24.1,19.9,84,29.19,0.8,WNW,17.3,28.8,0.01,Snow,Light Snow,300,2014-02-14 18:32:00
1:43 PM,24.1,19.9,84,29.20,1.2,NW,12.7,21.9,0.01,Snow,Light Snow,310,2014-02-14 18:43:00
1:51 PM,24.1,19.9,84,29.26,1.2,NW,10.4,-,0.01,Snow,Light Snow,320,2014-02-14 18:51:00
1:58 PM,24.1,19.9,84,29.21,1.8,NW,9.2,-,0.00,Snow,Light Snow,310,2014-02-14 18:58:00
2:17 PM,24.1,19.9,84,29.22,1.0,NW,13.8,23.0,0.00,Snow,Light Snow,320,2014-02-14 19:17:00
2:26 PM,23.0,19.9,88,29.23,0.5,WNW,17.3,24.2,0.00,Fog-Snow,Snow,300,2014-02-14 19:26:00
2:43 PM,23.0,19.9,88,29.25,1.0,NW,13.8,27.6,0.00,Snow,Light Snow,310,2014-02-14 19:43:00
2:51 PM,23.0,19.9,88,29.31,1.0,WNW,11.5,-,0.00,Snow,Light Snow,290,2014-02-14 19:51:00
2:59 PM,23.0,19.9,88,29.26,0.8,WNW,9.2,19.6,0.00,Snow,Light Snow,300,2014-02-14 19:59:00
3:51 PM,23.0,19.9,88,29.36,0.5,WNW,10.4,-,0.00,Fog-Snow,Snow,300,2014-02-14 20:51:00
4:03 PM,23.0,19.9,88,29.32,0.5,NW,11.5,-,0.00,Fog-Snow,Snow,310,2014-02-14 21:03:00
4:16 PM,23.0,19.9,88,29.33,0.8,WNW,10.4,-,0.00,Snow,Light Snow,300,2014-02-14 21:16:00
4:51 PM,21.9,19.9,92,29.42,0.5,NW,9.2,-,0.01,Fog-Snow,Snow,320,2014-02-14 21:51:00
5:28 PM,21.0,19.0,92,29.40,1.0,NW,11.5,-,0.00,Snow,Light Snow,320,2014-02-14 22:28:00
5:51 PM,21.0,19.0,92,29.49,1.2,NNW,10.4,-,0.01,Snow,Light Snow,330,2014-02-14 22:51:00
6:14 PM,21.0,18.0,88,29.46,1.5,NW,13.8,-,0.00,Snow,Light Snow,320,2014-02-14 23:14:00
6:51 PM,21.0,18.0,88,29.56,1.8,NW,11.5,-,0.00,Snow,Light Snow,320,2014-02-14 23:51:00
6:58 PM,21.0,18.0,88,29.50,2.5,NW,10.4,-,0.00,Snow,Light Snow,320,2014-02-14 23:58:00
7:06 PM,21.0,18.0,88,29.51,4.0,NNW,8.1,-,0.00,Snow,Light Snow,330,2014-02-15 00:06:00
7:51 PM,21.0,17.1,85,29.61,10.0,WNW,4.6,-,0.00,,Overcast,290,2014-02-15 00:51:00
8:38 PM,21.9,17.1,82,29.59,10.0,WNW,5.8,-,0.00,,Overcast,290,2014-02-15 01:38:00
8:51 PM,21.0,17.1,85,29.65,10.0,WNW,4.6,-,0.00,,Overcast,290,2014-02-15 01:51:00
9:51 PM,21.9,17.1,82,29.70,9.0,NW,4.6,-,0.00,,Overcast,310,2014-02-15 02:51:00
10:05 PM,23.0,17.1,78,29.64,10.0,NNW,5.8,-,N/A,,Overcast,340,2014-02-15 03:05:00
10:28 PM,21.9,17.1,82,29.64,10.0,NNW,4.6,-,N/A,,Overcast,340,2014-02-15 03:28:00
10:51 PM,21.9,17.1,82,29.70,10.0,Calm,Calm,-,N/A,,Overcast,0,2014-02-15 03:51:00
11:09 PM,21.0,17.1,85,29.65,10.0,South,3.5,-,0.00,,Overcast,170,2014-02-15 04:09:00
11:51 PM,21.0,17.1,85,29.73,10.0,South,4.6,-,0.00,,Overcast,170,2014-02-15 04:51:00